Regional Weather Roundup
Issued by NWS Grand Forks, ND

Home | Current Version | Previous Version | Graphics & Text | Print | Product List | Glossary On
Versions: 1 2 3 4 5 6 7 8 9 10 11 12 13 14 15 16 17 18 19 20 21 22 23 24 25 26 27 28 29 30 31 32 33 34 35 36 37 38 39 40 41 42 43 44 45 46 47 48 49 50
000
ASUS43 KFGF 230631
RWRFGF
PRAIRIE TO PINES  WEATHER ROUNDUP
NATIONAL WEATHER SERVICE EASTERN NORTH DAKOTA/GRAND FORKS ND
100 AM CDT WED MAY 23 2018

 **SATELLITE DATA USED TO AUGMENT SKY COVER AT AUTOMATED STATIONS**
 *****  WEATHER ACROSS EASTERN NORTH DAKOTA  *****

CITY           SKY/WX    TMP DP  RH WIND       PRES   REMARKS
GRAND FORKS    FAIR      64  56  75 SE8       29.98S
6HR MIN TEMP:  64; 6HR MAX TEMP:  81;

GRAND FRKS AFB FAIR      65  55  68 SE7       29.98F
GRAND FRKS NWS   N/A     67  55  64 SE2       29.96S
DEVILS LAKE    MOCLDY    64  56  75 SW8       30.00R
6HR MIN TEMP:  64; 6HR MAX TEMP:  78;

FARGO          FAIR      68  56  65 SE12      29.99S
WAHPETON ARPT  FAIR      64  52  63 SE9       30.01R
$$

 ***** WEATHER ACROSS CENTRAL AND WESTERN NORTH DAKOTA  *****

CITY           SKY/WX    TMP DP  RH WIND       PRES   REMARKS
BISMARCK       CLOUDY    64  58  80 E16       29.96F
6HR MIN TEMP:  63; 6HR MAX TEMP:  80; 6HR PCP:  0.18;

MINOT          FAIR      62  52  69 CALM      29.94S
6HR MIN TEMP:  62; 6HR MAX TEMP:  84;

JAMESTOWN      FAIR      64  55  72 S8        29.96F
6HR MIN TEMP:  64; 6HR MAX TEMP:  79; 6HR PCP:  0.01;

MINOT AFB      CLOUDY    62  53  73 S6        29.93R
GARRISON         N/A     61  53  75 E9        29.96R
WILLISTON      LGT RAIN  65  55  70 E3        29.95R
6HR MIN TEMP:  65; 6HR MAX TEMP:  78; 6HR PCP: TRACE;

DICKINSON      FAIR      59  55  87 E6        29.95S
6HR MIN TEMP:  59; 6HR MAX TEMP:  81;

HETTINGER      MOCLDY    62  55  77 NE12      29.95F
6HR MIN TEMP:  57; 6HR MAX TEMP:  73; 6HR PCP:  0.07;

$$

 *****  OTHER AIRPORT OBSERVATIONS IN OUR AREA  *****

CITY           SKY/WX    TMP DP  RH WIND       PRES   REMARKS
WALHALLA       FAIR      68  55  64 S6G13     29.98S
GRAFTON AIRPOR FAIR      61  54  77 SE8       30.00F
VALLEY CITY AR FAIR      66  57  72 SE12      30.00S
CANDO          FAIR      64  54  68 SE8       30.00R
CAVALIER APRT    N/A     66  54  63 S7        29.98S
GWINNER          N/A     66  57  72 SE12      29.98S
SHEYENNE NWR     N/A     66  56  71 SE7       29.95S
ROLLA          FAIR      63  50  63 SE8       29.99S
 ***** THE ABOVE OBSERVATIONS ARE NON NWS ARE NOT QUALITY
       CONTROLLED AND MAY MIS-REPORT RAIN FOR SNOW...
$$

  *****  WEATHER ACROSS NORTHERN MINNESOTA  *****

CITY           SKY/WX    TMP DP  RH WIND       PRES   REMARKS
FLAG ISLAND    FAIR      61  54  77 CALM      30.01S
WARROAD        FAIR      59  52  77 CALM      30.03S
ROSEAU         FAIR      61  52  72 S6        30.02F
HALLOCK        FAIR      66  54  63 SE8       29.99S
THF RVR FALLS  FAIR      60  53  77 SE3       30.03S
6HR MIN TEMP:  60; 6HR MAX TEMP:  76;

BAUDETTE       FAIR      56  53  90 CALM      30.03S
6HR MIN TEMP:  55; 6HR MAX TEMP:  77;

WASKISH          N/A     57  54  88 CALM      30.04S
CROOKSTON      FAIR      63  55  77 SE7       30.01S
STEPHEN NDAWN    N/A     64  54  68 SE7         N/A
GREENBUSH NDAW   N/A     57  54  88 SE3         N/A
$$
  *****  WEATHER ACROSS CENTRAL AND WEST MINNESOTA  *****

CITY           SKY/WX    TMP DP  RH WIND       PRES   REMARKS
FOSSTON        FAIR      61  52  72 SE5       30.04S
BEMIDJI        FAIR      55  52  90 CALM      30.05S
6HR MIN TEMP:  56; 6HR MAX TEMP:  75;

PARK RAPIDS    FAIR      62  55  77 SE6       30.05S
6HR MIN TEMP:  62; 6HR MAX TEMP:  75;

ELBOW LAKE     FAIR      64  56  75 SE12      30.03F
WADENA         FAIR      57  54  88 CALM      30.06R
DETROIT LAKES  FAIR      61  55  82 SE6       30.05S
MOORHEAD       FAIR      66  55  68 SE8       30.01R
FERGUS FALLS   FAIR      66  55  68 SE10      29.98S
MORRIS MN      FAIR      64  55  72 E9        30.01F
STAPLES        FAIR      55  54  94 SE3       30.06S
$$
  *****  WEATHER ELSEWHERE ACROSS MINNESOTA  *****

CITY           SKY/WX    TMP DP  RH WIND       PRES   REMARKS
DULUTH         FAIR      61  53  75 W6        30.08R
6HR MIN TEMP:  59; 6HR MAX TEMP:  76;

INTRNTL FALLS  FAIR      49  47  93 CALM      30.04R
6HR MIN TEMP:  49; 6HR MAX TEMP:  76;

ELY            FAIR      52  46  82 SW3       30.07R
CLOQUET        FAIR      54  48  82 CALM      30.08S
WHEATON        FAIR      66  55  68 SE12      30.02S
BRAINERD       FOG       55  52  89 CALM      30.07S VSB 1
6HR MIN TEMP:  55; 6HR MAX TEMP:  75;

HIBBING        FAIR      50  49  96 CALM      30.07R
6HR MIN TEMP:  49; 6HR MAX TEMP:  74;

ALEXANDRIA     FAIR      65  55  70 E8        30.06F
6HR MIN TEMP:  65; 6HR MAX TEMP:  78;

SAINT CLOUD    FAIR      57  55  93 CALM      30.07R
6HR MIN TEMP:  56; 6HR MAX TEMP:  73;

MINNEAPOLIS    MOCLDY    63  59  87 SE6       30.08R
6HR MIN TEMP:  63; 6HR MAX TEMP:  74;

$$

  *****  WEATHER ACROSS SOUTH DAKOTA  *****

CITY           SKY/WX    TMP DP  RH WIND       PRES   REMARKS
SIOUX FALLS    FAIR      67  61  81 E7        29.97F
6HR MIN TEMP:  67; 6HR MAX TEMP:  77;

BROOKINGS      CLOUDY    68  61  78 E8        29.99F
WATERTOWN      FAIR      66  60  81 E5        29.99S
6HR MIN TEMP:  66; 6HR MAX TEMP:  79;

HURON          MOCLDY    67  63  87 E6        29.94S
6HR MIN TEMP:  67; 6HR MAX TEMP:  81;

SISSETON         N/A     65  58  78 SE3       29.99S
ABERDEEN       FAIR      66  56  70 E9        29.96S
6HR MIN TEMP:  66; 6HR MAX TEMP:  83;

MITCHELL       FAIR      68  64  87 SE7       29.93F
PIERRE         FAIR      67  64  90 E9        29.87F
6HR MIN TEMP:  67; 6HR MAX TEMP:  80;

MOBRIDGE       FAIR      68  61  78 SE7       29.90F
RAPID CITY     RAIN      58  54  86 SW7       29.96R
6HR MIN TEMP:  58; 6HR MAX TEMP:  75; 6HR PCP:  0.11;

$$

  *****  SOME WEATHER IN NEARBY STATES *****

CITY           SKY/WX    TMP DP  RH WIND       PRES   REMARKS
GLASGOW MT     FAIR      59  47  64 SE5       29.93R
6HR MIN TEMP:  58; 6HR MAX TEMP:  76;

GREAT FALLS MT CLOUDY    61  49  64 E5        29.99F
6HR MIN TEMP:  58; 6HR MAX TEMP:  72;

CHEYENNE WY    FAIR      52  50  93 NW7       30.03F
6HR MIN TEMP:  52; 6HR MAX TEMP:  65; 6HR PCP:  0.21;

SCOTTSBLUFF NE FAIR      61  56  83 W13       29.94S
6HR MIN TEMP:  61; 6HR MAX TEMP:  77; 6HR PCP:  0.02;

OMAHA NE       MOCLDY    72  61  68 S8        29.99R
6HR MIN TEMP:  72; 6HR MAX TEMP:  84;

DES MOINES IA  MOCLDY    71  63  75 SE9       30.04R
6HR MIN TEMP:  71; 6HR MAX TEMP:  78;

DAVENPORT IA   FAIR      61  58  90 E7        30.11S
6HR MIN TEMP:  61; 6HR MAX TEMP:  74;

CHICAGO IL     FAIR      54  51  90 S3        30.10R
6HR MIN TEMP:  54; 6HR MAX TEMP:  65;

EAU CLAIRE WI  FOG       52  52 100 CALM      30.09R VSB 1
6HR MIN TEMP:  51; 6HR MAX TEMP:  69;

LA CROSSE WI   FAIR      57  56  96 SE6       30.09S
6HR MIN TEMP:  57; 6HR MAX TEMP:  69;

$$

  *****  SOME NATIONAL WEATHER *****

CITY           SKY/WX    TMP DP  RH WIND       PRES   REMARKS
LA GUARDIA NY  CLOUDY    58  55  90 NE6       29.93F FOG
6HR MIN TEMP:  57; 6HR MAX TEMP:  58;

RALEIGH NC     MOCLDY    71  67  87 SW9       30.06F
6HR MIN TEMP:  71; 6HR MAX TEMP:  80;

ATLANTA GA     LGT RAIN  69  67  93 S5        30.06F FOG
6HR MIN TEMP:  69; 6HR MAX TEMP:  74; 6HR PCP:  0.45;

NEW ORLEANS LA FAIR      80  74  81 SE6       30.02F
6HR MIN TEMP:  79; 6HR MAX TEMP:  85;

OKLAHOMA CITY  FAIR      72  66  81 SE9       30.00F
6HR MIN TEMP:  70; 6HR MAX TEMP:  83;

ALBUQUERQUE NM FAIR      63  17  17 SE8       29.99S
6HR MIN TEMP:  63; 6HR MAX TEMP:  82;

SALT LAKE CITY MOCLDY    58  48  69 SE7       29.94F
6HR MIN TEMP:  57; 6HR MAX TEMP:  70; 6HR PCP:  0.05;

LOS ANGELES CA MOCLDY



USA.gov is the U.S. government's official web portal to all federal, state and local government web resources and services.